Other Public Products
Issued by NWS Grand Forks, ND

Home | Current Version | Previous Version | Graphics & Text | Print | Product List | Glossary On
Versions: 1 2 3 4 5 6 7 8 9 10 11 12 13 14 15 16 17 18 19 20 21 22 23 24 25 26 27 28 29 30 31 32 33 34 35 36 37 38 39 40 41 42 43 44 45 46 47 48 49 50
000
FPUS83 KFGF 211431
OPUFGF
PRAIRIE TO PINES WEATHER ROUNDUP
NATIONAL WEATHER SERVICE EASTERN NORTH DAKOTA/GRAND FORKS ND
800 AM CST TUE NOV 21 2017

 **SATELLITE DATA USED TO AUGMENT SKY COVER AT AUTOMATED STATIONS**
 *****  WEATHER ACROSS EASTERN NORTH DAKOTA  *****

CITY           SKY/WX    TMP DP  RH WIND       PRES   REMARKS
GRAND FORKS    FAIR      12   7  80 NW22G29   30.16R WCI  -7
GRND FORKS AFB FAIR      11   4  73 N17       30.16R WCI  -6
GRND FORKS NWS NOT AVBL
BUXTON           N/A     13   8  80 NW22        N/A  WCI  -6
DEVILS LAKE    FAIR      10   5  80 NW15      30.20  WCI  -7
FARGO          FAIR      15   7  70 N24G35    30.16R WCI  -4
WAHPETON ARPT  NOT AVBL
$$

 *****  WEATHER ACROSS CENTRAL AND WESTERN NORTH DAKOTA  *****

CITY           SKY/WX    TMP DP  RH WIND       PRES   REMARKS
JAMESTOWN      FAIR      11   6  81 NW23      30.18R WCI  -9
BISMARCK       FAIR      16   5  62 NW20G30   30.30R WCI  -1
MINOT          CLOUDY     7   1  76 W16       30.28R WCI -11
MINOT AFB      CLOUDY     7   1  78 NW18      30.28R WCI -12
GARRISON         N/A      5   0  79 NW15G25   30.29R WCI -13
WILLISTON      CLOUDY     5  -2  72 W14       30.37R WCI -12
DICKINSON      FAIR       3  -2  79 NW14      30.25R WCI -15
HETTINGER      FAIR       5  -2  72 NW10      30.28R WCI -10
$$

 *****  OTHER OBSERVATIONS NORTHEAST NORTH DAKOTA  *****

CITY           SKY/WX    TMP DP  RH WIND       PRES   REMARKS
WALHALLA       FAIR      12   9  85 NW17      30.19R WCI  -5
LANGDON        FAIR      10   7  85 NW18      30.16R WCI  -8
CAVALIER       FAIR      12   5  73 NW16      30.17R WCI  -4
GRAFTON        FAIR      12   7  79 NW15G21   30.20R WCI  -4
CANDO          FAIR       9   5  85 NW15      30.23R WCI  -8
FORT TOTTEN      N/A     12   6  77 NW10      29.95S WCI  -1
ROLLA          FLURRIES   9   3  78 NW21G29   30.20R WCI -11
RUGBY          FAIR       9   5  85 NW14G21   30.24R WCI  -8
 ***** THE ABOVE OBSERVATIONS ARE NON NWS ARE NOT QUALITY
        CONTROLLED AND MAY MIS-REPORT RAIN FOR SNOW...
$$

 *****  OTHER OBSERVATIONS SOUTHEAST NORTH DAKOTA *****

CITY           SKY/WX    TMP DP  RH WIND       PRES   REMARKS
COOPERSTOWN    FAIR      12   7  79 NW16G22   30.18R WCI  -4
VALLEY CITY    PTSUNNY   12   9  85 NW15G23   30.19R WCI  -4
OAKES            N/A     12   5  73 NW20G31   30.20R WCI  -6
GWINNER          N/A     14   7  73 NW18G25   30.18R WCI  -3
SHEYENNE NWR     N/A     16   7  66 N15       29.95S WCI   1
BUFFALO          N/A     13   5  69 W16G28      N/A  WCI  -3
WYNDMERE       NOT AVBL
 ***** THE ABOVE OBSERVATIONS ARE NON NWS ARE NOT QUALITY
       CONTROLLED AND MAY MIS-REPORT RAIN FOR SNOW...
$$

  *****  WEATHER ACROSS NORTHERN MINNESOTA  *****

CITY           SKY/WX    TMP DP  RH WIND       PRES   REMARKS
FLAG ISLAND    CLOUDY    12   7  79 NW29      30.00R HAZE    WCI  -9
WARROAD        FLURRIES  12   7  79 NW17G25   30.04R WCI  -5
ROSEAU         FLURRIES  14   9  79 NW15      30.06R WCI  -1
HALLOCK        LGT SNOW  12   9  85 NW20G28   30.15R WCI  -6
THF RVR FALLS  FLURRIES  11   6  81 NW21      30.10R WCI  -8
HALSTAD          N/A     13   7  77 N20G32      N/A  WCI  -5
FOSSTON        FLURRIES   9   5  85 NW17G24   30.07R WCI -10
BAUDETTE       FLURRIES  13   7  77 NW17G30   29.99R WCI  -4
WASKISH        FAIR      14   9  79 NW12G18   30.00R WCI   0
CROOKSTON      CLOUDY    12   9  85 N21G29    30.15R WCI  -6
$$
  *****  WEATHER ACROSS CENTRAL AND WEST MINNESOTA  *****

CITY           SKY/WX    TMP DP  RH WIND       PRES   REMARKS
BEMIDJI        LGT SNOW  14   8  79 NW16G23   30.00R WCI  -2
PARK RAPIDS    FLURRIES  14   7  73 NW23G36   29.96R WCI  -5
WADENA         LGT SNOW  12   9  85 NW16G26   30.00R WCI  -4
DETROIT LAKES  LGT SNOW  14  10  85 NW24G31   30.08R WCI  -5
MOORHEAD       MOCLDY    12   7  79 NW21G26   30.16R WCI  -6
FERGUS FALLS   LGT SNOW  14   9  79 N20G38    30.13R WCI  -3
ELBOW LAKE     LGT SNOW  16  10  78 NW23G35   30.08R WCI  -2
MORRIS MN      CLOUDY    18   9  68 NW30G39   30.07R WCI  -2
STAPLES        FLURRIES  16   9  73 NW16      29.98R WCI   0
WHEATON        CLOUDY    18   7  62 NW29G37   30.16R WCI  -2
$$
  *****  WEATHER ELSEWHERE ACROSS MINNESOTA  *****

CITY           SKY/WX    TMP DP  RH WIND       PRES   REMARKS
DULUTH         LGT SNOW  19  12  74 NW16G24   29.77R WCI   4
INTRNTL FALLS    N/A     14   6  70 NW15      29.89R WCI  -1
ELY            FLURRIES  16   7  67 NW17G26   29.76R WCI   0
CLOQUET        FLURRIES  19  10  68 NW21      29.82R WCI   3
BRAINERD       FLURRIES  19   9  65 NW24G30   29.93R WCI   2
HIBBING        FLURRIES  17   9  70 NW23G33   29.81R WCI  -1
ALEXANDRIA     CLOUDY    16   9  74 NW22G39   30.01R WCI  -2
SAINT CLOUD    CLOUDY    19   9  65 NW24G35   29.94R WCI   2
MINNEAPOLIS    MOCLDY    24  11  57 NW29G36   29.90R WCI   7
$$

  *****  WEATHER ACROSS SOUTH DAKOTA  *****

CITY           SKY/WX    TMP DP  RH WIND       PRES   REMARKS
SIOUX FALLS    FAIR      19   9  65 NW21G28   30.12R WCI   3
BROOKINGS      FLURRIES  16   9  74 NW18G30   30.11R WCI   0
WATERTOWN      CLOUDY    15   8  73 NW26G36   30.10R WCI  -4
HURON          FAIR      15   6  67 NW17G32   30.23R WCI  -1
SISSETON         N/A     17   9  70 NW23G32   30.13R WCI  -1
ABERDEEN       FAIR      13   6  74 NW22      30.22R WCI  -6
MITCHELL       FAIR      16   7  67 NW22G31   30.23R WCI  -2
PIERRE         FLURRIES  13   5  70 N17       30.28R WCI  -4
MOBRIDGE       CLOUDY    13   3  64 NW23      30.24R WCI  -6
RAPID CITY     FAIR      21  17  84 N13       30.23R WCI   9
$$

  *****  SOME WEATHER IN NEARBY STATES *****

CITY           SKY/WX    TMP DP  RH WIND       PRES   REMARKS
GLASGOW MT     FAIR       2  -3  80 NE7       30.35R WCI -11
GREAT FALLS MT FAIR      18  15  88 SE6       30.15F WCI  10
CHEYENNE WY    CLOUDY    34  31  88 N17       30.18R WCI  23
SCOTTSBLUFF NE CLOUDY    32  23  69 NW3       30.25R
OMAHA NE       MOCLDY    38  28  67 NW8       30.02R
DES MOINES IA  MOCLDY    40  22  48 NW16G26   29.94R
DAVENPORT IA   LGT RAIN  40  29  64 NW14G23   29.85R
CHICAGO IL     CLOUDY    43  32  65 SW15      29.71R
EAU CLAIRE WI  CLOUDY    27  11  51 NW22      29.80R WCI  13
LA CROSSE WI   MOCLDY    31  15  52 NW24G38   29.81R WCI  17
$$

  *****  SOME NATIONAL WEATHER *****

CITY           SKY/WX    TMP DP  RH WIND       PRES   REMARKS
LA GUARDIA NY  FAIR      48  32  53 SW17      30.13F
RALEIGH NC     PTSUNNY   45  36  70 CALM      30.22F
ATLANTA GA     PTSUNNY   48  40  73 E8        30.14R
NEW ORLEANS LA FAIR      58  52  80 E7        30.02S
OKLAHOMA CITY  MOCLDY    42  34  73 S5        29.86R
ALBUQUERQUE NM MOCLDY    47   4  17 N13       30.22R
SALT LAKE CITY MOCLDY    45  38  76 NW7       30.27R
LOS ANGELES CA MOCLDY    60  45  57 E3        30.03R
BOISE ID       MOCLDY    44  41  89 SE6       30.22R
SEATTLE WA     LGT RAIN  41  40  96 NW5       29.98S FOG
$$

*** WEATHER ACROSS MANITOBA...SASKATCHEWAN AND ONTARIO ***
                ***ONTARIO***

CITY           SKY/WX    TMP DP  RH WIND       PRES   REMARKS
GERALDTON      LGT SNOW  12   9  85 N18G30    29.44R VSB 3/4 WCI  -5
THUNDER BAY    FLURRIES  19  12  73 NW17G26   29.61R WCI   4
SIOUX LOOKOUT  FLURRIES  10   5  79 NW14G21   29.80R WCI  -5
TORONTO        PTSUNNY   45  30  57 S16G24    29.67S
BIG TROUT LK   FLURRIES  12   9  85 NW14G24   29.67R WCI  -3
PICKLE LAKE    FLURRIES  10   7  85 NW12G22   29.67R WCI  -4
DRYDEN         FLURRIES  10   7  85 NW12G22   29.85R WCI  -4
KENORA         LGT SNOW  10   7  85 NW13G23   29.97R DRFTSNOWWCI  -5
$$
                *** MANITOBA***

CITY           SKY/WX    TMP DP  RH WIND       PRES   REMARKS
BRANDON        PTCLDY     5   0  78 NW10      30.22R WCI -10
DAUPHIN        CLOUDY     9   3  78 W18       30.22R WCI -10
ISLAND LAKE    FLURRIES  12   7  79 NW12G24   29.87  WCI  -2
PILOT MOUND      N/A      9   3  78 NW18        N/A  WCI -10
THE PAS        PTCLDY     7   0  72 W14G23    30.17R WCI -10
THOMPSON       FLURRIES   9   3  78 W12G22    29.96R WCI  -6
WINNIPEG       MOCLDY    10   5  79 NW16G24   30.15R WCI  -7
LYNN LAKE      CLEAR      1  -2  85 NW9G17    30.06R WCI -14
CHURCHILL      SNOW      16  12  86 NW33G45   29.67R VSB 1/2 WCI  -5
$$
                ***SASKATCHEWAN***

CITY           SKY/WX    TMP DP  RH WIND       PRES   REMARKS
ESTEVAN        FLURRIES   3  -2  78 W13       30.30R WCI -14
KINDERSLEY     PTCLDY   -13 -18  77 SW8       30.31R WCI -30
LLOYDMINSTER   FLURRIES   1  -4  78 W7        30.28R WCI -11
PRINCE ALBERT  MOCLDY     5   0  78 W6        30.32R WCI  -6
REGINA         CLOUDY     3  -2  78 NW13      30.30F WCI -14
YORKTON        FLURRIES  10   5  79 NW9       30.25R WCI  -2
N. BATTLEFORD  FLURRIES   1  -6  71 W6        30.35R WC



USA.gov is the U.S. government's official web portal to all federal, state and local government web resources and services.